sat.trackr.live / text

‹ back to catalog

STARLINK-11133 [DTC]

NORAD 59954 · 2024-107K

PAYLOAD ACTIVE UNKNOWN

§ Identity

Operator
Country
US
Launch date
2024-06-05
Launch site
AFETR
Launch vehicle
Mass (kg)
RCS (m²)

Purposes: comms

External: N2YO · Heavens-Above · Gunter

§ Orbital elements

Epoch: 2026-05-24T16:24:45.571392Z

Period
91.74 min
Inclination
53.1576°
Eccentricity
0.0001085
Mean motion
15.69708254 rev/d
Perigee alt
359.0 km
Apogee alt
360.5 km
Semi-major
6,737.9 km
B*
1.6580e-5
RAAN
236.4947°
Arg perigee
77.7020°
Mean anomaly
282.4120°
Rev number
11,408

§ Raw data

STARLINK-11133 [DTC]1 59954U 24107K   26144.68386078  .00001420  00000+0  16580-4 0  99992 59954  53.1576 236.4947 0001085  77.7020 282.4120 15.69708254114083

JSON: /api/v1/satellites/59954 · /tle

For live sub-satellite position, see the globe view (requires WebGL).

§ Visibility from observer

Set your observer location to see the next 7 days of passes ≥ 10°. The values pass through the URL so the page stays shareable.

No JS? Fill the form by hand. The geolocation button needs JavaScript.